Location: Unspecified
(0.0000°N, 0.0000°E)
Time: 19:32:39
(UTC+00:00)

deb Kosmos-1275 - Pass Details

Date: 10 March 2026
Orbit: 880 x 1009 km, 83.1° (Epoch: 21 April)

Event Time Altitude Azimuth Distance (km) Brightness Sun altitude
Exits shadow 03:54:33 22° 172° (S) 1,940 ? -33.9°
Drops below altitude 10° 03:56:31 10° 173° (S) 2,657 ? -33.4°
Sets 03:58:58 0° 174° (S) 3,584 ? -32.8°
